Regional Weather Roundup
Issued by NWS

Home | Current Version | Previous Version | Graphics & Text | Print | Product List | Glossary On
Versions: 1 2 3 4 5 6 7 8 9 10 11 12 13 14 15 16 17 18 19 20 21 22 23 24 25 26 27 28 29 30 31 32 33 34 35 36 37 38 39 40 41 42 43 44 45 46 47 48 49 50
000
ASUS43 KTOP 311408
RWRKS

WEATHER ROUNDUP FOR KANSAS
NATIONAL WEATHER SERVICE GOODLAND KS
900 AM CDT FRI JUL 31 2015

NOTE:  "FAIR" INDICATES FEW OR NO CLOUDS BELOW 12,000 FEET WITH NO
SIGNIFICANT WEATHER AND/OR OBSTRUCTIONS TO VISIBILITY.

KSZ001>006-013>018-027>032-041>047-311500-
NORTHWEST KANSAS

CITY           SKY/WX    TMP DP  RH WIND       PRES   REMARKS
GOODLAND       SUNNY     71  67  87 S8        30.29R
HAYS           SUNNY     73  64  73 CALM      30.23R
HILL CITY      SUNNY     75  70  84 W8        30.23R
RUSSELL        SUNNY     75  72  90 S5        30.21R
$$

KSZ061>065-074>080-084>089-311500-
SOUTHWEST KANSAS

CITY           SKY/WX    TMP DP  RH WIND       PRES   REMARKS
DODGE CITY       N/A    N/A N/A N/A MISG      30.26R
ELKHART          N/A     66  62  87 W2          N/A
GARDEN CITY    PTSUNNY   72  69  90 S3        30.25S
GREAT BEND     PTSUNNY   72  68  88 CALM      30.22S
LIBERAL        CLOUDY    72  66  83 CALM      30.26R
PRATT          MOSUNNY   73  70  88 CALM      30.23F
$$

KSZ066>073-081>083-090>101-311500-
SOUTHEAST KANSAS

CITY           SKY/WX    TMP DP  RH WIND       PRES   REMARKS
CHANUTE        SUNNY     78  67  68 CALM      30.18S
COFFEYVILLE    MOSUNNY   79  69  71 S5        30.17R
HUTCHINSON     SUNNY     77  67  71 SE5       30.21R
MEDICINE LODGE   N/A     75  72  90 NE5       30.21S
NEWTON         SUNNY     75  64  69 E3        30.22S
PARSONS        MOSUNNY   79  68  69 SE5       30.18S
WICHITA INTL   PTSUNNY   78  66  66 SE3       30.19R
WICHITA JABRA  SUNNY     76  67  73 E3        30.19S
WICHITA MCCONL SUNNY     78  65  65 VRB2      30.19S
WINFIELD       SUNNY     77  69  76 CALM      30.19S
$$

KSZ007>012-019>026-033>040-048>060-102>105-311500-
NORTHEAST KANSAS

CITY           SKY/WX    TMP DP  RH WIND       PRES   REMARKS
CONCORDIA      SUNNY     77  70  79 W6        30.19S
EMPORIA        SUNNY     74  66  76 SE3       30.19S
LAWRENCE       SUNNY     73  67  81 N3        30.19S
MANHATTAN      SUNNY     73  67  81 CALM      30.18S
MARYSVILLE     SUNNY     73  68  83 CALM      30.19S
OLATHE IND     SUNNY     75  67  76 S6        30.19S
OLATHE EXE     SUNNY     74  66  76 SW7       30.18S
SALINA         SUNNY     77  70  79 SW5       30.19S
TOPEKA BILLARD SUNNY     73  67  81 N3        30.20R
TOPEKA FORBES  SUNNY     74  65  73 CALM      30.19S
$$


USA.gov is the U.S. government's official web portal to all federal, state and local government web resources and services.